This is the latest recevied weather packets stored in our database for station/object VU3HGG-15. If no packets are shown the sender has not sent any weather packets the latest 10 day(s).
| Time | Temp. | Humidity | Pressure | Rain* | Wind** | Luminosity | Snow |
|---|---|---|---|---|---|---|---|
| 1788055176 | 26.11° C | 64% | 911.2 hPa | - | - | - | - |
| 1788054576 | 26.11° C | 64% | 911.2 hPa | - | - | - | - |
| 1788053976 | 26.67° C | 64% | 911.1 hPa | - | - | - | - |
| 1788053376 | 27.22° C | 63% | 911 hPa | - | - | - | - |
| 1788052777 | 26.11° C | 66% | 911 hPa | - | - | - | - |
| 1788052176 | 26.67° C | 64% | 910.9 hPa | - | - | - | - |
| 1788051576 | 27.22° C | 63% | 910.7 hPa | - | - | - | - |
| 1788050976 | 26.67° C | 64% | 910.6 hPa | - | - | - | - |
| 1788050377 | 26.11° C | 64% | 910.4 hPa | - | - | - | - |
| 1788049777 | 26.67° C | 64% | 910.4 hPa | - | - | - | - |
| 1788049176 | 25.56° C | 65% | 910.3 hPa | - | - | - | - |
| 1788048576 | 26.67° C | 63% | 910.3 hPa | - | - | - | - |
| 1788047976 | 26.67° C | 64% | 910.4 hPa | - | - | - | - |
| 1788047377 | 27.22° C | 63% | 910.3 hPa | - | - | - | - |
| 1788046776 | 26.67° C | 64% | 910.3 hPa | - | - | - | - |
| 1788046177 | 26.67° C | 64% | 910.2 hPa | - | - | - | - |
| 1788045577 | 26.67° C | 64% | 910.2 hPa | - | - | - | - |
| 1788044977 | 26.67° C | 65% | 910 hPa | - | - | - | - |
| 1788044377 | 26.11° C | 66% | 910 hPa | - | - | - | - |
| 1788043777 | 26.11° C | 67% | 910 hPa | - | - | - | - |
| 1788043177 | 25.56° C | 68% | 910 hPa | - | - | - | - |
| 1788042577 | 26.11° C | 67% | 910.1 hPa | - | - | - | - |
| 1788041977 | 26.11° C | 68% | 910.2 hPa | - | - | - | - |
| 1788041377 | 26.67° C | 67% | 910.2 hPa | - | - | - | - |
| 1788040777 | 26.67° C | 66% | 910.1 hPa | - | - | - | - |
* Rain since midnight (hover to see other rain measurements)
** Current wind speed in m/s (hover to see current wind gust speed)